This is the latest recevied weather packets stored in our database for station/object KD8JAM. If no packets are shown the sender has not sent any weather packets the latest 10 day(s).
| Time | Temp. | Humidity | Pressure | Rain* | Wind** | Luminosity | Snow |
|---|---|---|---|---|---|---|---|
| 1777926871 | 8.89° C | 74% | 995.6 hPa | 0 mm | - | 609 W/m² | - |
| 1777926567 | 8.89° C | 74% | 995.5 hPa | 0 mm | - | 625 W/m² | - |
| 1777926264 | 8.89° C | 74% | 995.6 hPa | 0 mm | - | 636 W/m² | - |
| 1777925961 | 8.89° C | 74% | 995.5 hPa | 0 mm | - | 645 W/m² | - |
| 1777925658 | 8.89° C | 74% | 995.4 hPa | 0 mm | - | 660 W/m² | - |
| 1777925355 | 8.89° C | 74% | 995.6 hPa | 0 mm | - | 670 W/m² | - |
| 1777925052 | 8.89° C | 76% | 995.4 hPa | 0 mm | - | 695 W/m² | - |
| 1777924749 | 8.89° C | 77% | 995.2 hPa | 0 mm | - | 729 W/m² | - |
| 1777924444 | 9.44° C | 75% | 995.1 hPa | 0 mm | - | 449 W/m² | - |
| 1777924141 | 10° C | 72% | 995.2 hPa | 0 mm | - | 675 W/m² | - |
| 1777923837 | 9.44° C | 73% | 995.2 hPa | 0 mm | - | 508 W/m² | - |
| 1777923533 | 9.44° C | 75% | 994.9 hPa | 0 mm | - | 719 W/m² | - |
| 1777923230 | 8.89° C | 74% | 995.1 hPa | 0 mm | - | 766 W/m² | - |
| 1777922929 | 8.89° C | 76% | 994.8 hPa | 0 mm | - | 371 W/m² | - |
| 1777922626 | 8.33° C | 77% | 995 hPa | 0 mm | - | 643 W/m² | - |
| 1777922325 | 8.33° C | 79% | 995 hPa | 0 mm | - | 312 W/m² | - |
| 1777922022 | 8.89° C | 77% | 994.9 hPa | 0 mm | - | 496 W/m² | - |
| 1777921718 | 8.33° C | 79% | 994.9 hPa | 0 mm | - | 666 W/m² | - |
| 1777921413 | 8.33° C | 80% | 994.8 hPa | 0 mm | - | 281 W/m² | - |
| 1777921110 | 8.33° C | 81% | 994.7 hPa | 0 mm | - | 361 W/m² | - |
| 1777920807 | 7.78° C | 83% | 994.6 hPa | 0 mm | - | 335 W/m² | - |
| 1777920504 | 8.33° C | 82% | 994.4 hPa | 0 mm | - | 276 W/m² | - |
| 1777920199 | 8.89° C | 81% | 994.4 hPa | 0 mm | - | 407 W/m² | - |
| 1777919895 | 9.44° C | 80% | 994.4 hPa | 0 mm | - | 777 W/m² | - |
| 1777919593 | 9.44° C | 81% | 994.3 hPa | 0 mm | - | 904 W/m² | - |
* Rain latest hour (hover to see other rain measurements)
** Current wind speed in m/s (hover to see current wind gust speed)